Year,Month,Day,Hour,Minute,Value (Times are PST for windspeed in km/hr)
2006,02,02,00,00,1.40
2006,02,02,00,01,2.00
2006,02,02,00,02,2.30
2006,02,02,00,03,1.20
2006,02,02,00,04,1.40
2006,02,02,00,05,2.60
2006,02,02,00,06,5.50
2006,02,02,00,07,6.20
2006,02,02,00,08,4.70
2006,02,02,00,09,3.70
2006,02,02,00,10,3.90
2006,02,02,00,11,3.40
2006,02,02,00,12,1.50
2006,02,02,00,13,0.00
2006,02,02,00,14,0.00
2006,02,02,00,15,0.00
2006,02,02,00,16,0.00
2006,02,02,00,17,0.00
2006,02,02,00,18,0.00
2006,02,02,00,19,2.30
2006,02,02,00,20,3.80
2006,02,02,00,21,2.40
2006,02,02,00,22,4.30
2006,02,02,00,23,4.30
2006,02,02,00,24,1.70
2006,02,02,00,25,3.40
2006,02,02,00,26,3.40
2006,02,02,00,27,4.90
2006,02,02,00,28,4.70
2006,02,02,00,29,3.80
2006,02,02,00,30,3.50
2006,02,02,00,31,2.70
2006,02,02,00,32,1.40
2006,02,02,00,33,1.40
2006,02,02,00,34,3.10
2006,02,02,00,35,3.10
2006,02,02,00,36,2.60
2006,02,02,00,37,3.50
2006,02,02,00,38,4.70
2006,02,02,00,39,2.60
2006,02,02,00,40,6.40
2006,02,02,00,41,10.50
2006,02,02,00,42,8.30
2006,02,02,00,43,8.10
2006,02,02,00,44,9.30
2006,02,02,00,45,7.90
2006,02,02,00,46,10.60
2006,02,02,00,47,6.60
2006,02,02,00,48,6.50
2006,02,02,00,49,6.40
2006,02,02,00,50,5.80
2006,02,02,00,51,4.70
2006,02,02,00,52,4.50
2006,02,02,00,53,4.40
2006,02,02,00,54,1.50
2006,02,02,00,55,7.30
2006,02,02,00,56,8.10
2006,02,02,00,57,7.00
2006,02,02,00,58,3.70
2006,02,02,00,59,4.60
2006,02,02,01,00,4.70
2006,02,02,01,01,3.60
2006,02,02,01,02,2.30
2006,02,02,01,03,2.20
2006,02,02,01,04,2.50
2006,02,02,01,05,3.00
2006,02,02,01,06,2.50
2006,02,02,01,07,3.10
2006,02,02,01,08,2.20
2006,02,02,01,09,2.60
2006,02,02,01,10,2.00
2006,02,02,01,11,2.00
2006,02,02,01,12,1.30
2006,02,02,01,13,1.10
2006,02,02,01,14,1.30
2006,02,02,01,15,2.00
2006,02,02,01,16,2.50
2006,02,02,01,17,6.00
2006,02,02,01,18,4.70
2006,02,02,01,19,4.60
2006,02,02,01,20,3.60
2006,02,02,01,21,3.00
2006,02,02,01,22,2.70
2006,02,02,01,23,2.50
2006,02,02,01,24,2.70
2006,02,02,01,25,1.70
2006,02,02,01,26,1.70
2006,02,02,01,27,1.00
2006,02,02,01,28,0.00
2006,02,02,01,29,0.00
2006,02,02,01,30,0.00
2006,02,02,01,31,0.00
2006,02,02,01,32,0.00
2006,02,02,01,33,0.00
2006,02,02,01,34,0.00
2006,02,02,01,35,0.00
2006,02,02,01,36,0.00
2006,02,02,01,37,1.00
2006,02,02,01,38,0.40
2006,02,02,01,39,0.00
2006,02,02,01,40,0.00
2006,02,02,01,41,0.00
2006,02,02,01,42,0.00
2006,02,02,01,43,0.00
2006,02,02,01,44,0.00
2006,02,02,01,45,0.50
2006,02,02,01,46,2.00
2006,02,02,01,47,1.10
2006,02,02,01,48,2.30
2006,02,02,01,49,2.80
2006,02,02,01,50,3.30
2006,02,02,01,51,3.50
2006,02,02,01,52,4.80
2006,02,02,01,53,3.40
2006,02,02,01,54,4.00
2006,02,02,01,55,4.20
2006,02,02,01,56,3.60
2006,02,02,01,57,4.80
2006,02,02,01,58,5.20
2006,02,02,01,59,6.00
2006,02,02,02,00,5.90
2006,02,02,02,01,4.90
2006,02,02,02,02,4.30
2006,02,02,02,03,4.30
2006,02,02,02,04,3.30
2006,02,02,02,05,4.30
2006,02,02,02,06,4.20
2006,02,02,02,07,4.00
2006,02,02,02,08,5.00
2006,02,02,02,09,6.50
2006,02,02,02,10,6.40
2006,02,02,02,11,8.10
2006,02,02,02,12,8.00
2006,02,02,02,13,9.10
2006,02,02,02,14,9.70
2006,02,02,02,15,11.70
2006,02,02,02,16,6.80
2006,02,02,02,17,8.40
2006,02,02,02,18,7.70
2006,02,02,02,19,7.30
2006,02,02,02,20,7.30
2006,02,02,02,21,4.30
2006,02,02,02,22,5.30
2006,02,02,02,23,6.10
2006,02,02,02,24,5.10
2006,02,02,02,25,6.80
2006,02,02,02,26,6.80
2006,02,02,02,27,6.00
2006,02,02,02,28,5.80
2006,02,02,02,29,8.50
2006,02,02,02,30,6.70
2006,02,02,02,31,7.80
2006,02,02,02,32,9.40
2006,02,02,02,33,8.10
2006,02,02,02,34,7.70
2006,02,02,02,35,8.00
2006,02,02,02,36,7.30
2006,02,02,02,37,6.80
2006,02,02,02,38,7.70
2006,02,02,02,39,5.90
2006,02,02,02,40,8.70
2006,02,02,02,41,8.60
2006,02,02,02,42,6.60
2006,02,02,02,43,7.20
2006,02,02,02,44,7.90
2006,02,02,02,45,7.70
2006,02,02,02,46,6.40
2006,02,02,02,47,6.40
2006,02,02,02,48,10.30
2006,02,02,02,49,8.40
2006,02,02,02,50,6.40
2006,02,02,02,51,10.00
2006,02,02,02,52,7.50
2006,02,02,02,53,9.70
2006,02,02,02,54,8.20
2006,02,02,02,55,6.00
2006,02,02,02,56,6.70
2006,02,02,02,57,9.50
2006,02,02,02,58,12.20
2006,02,02,02,59,9.20
2006,02,02,03,00,6.50
2006,02,02,03,01,7.60
2006,02,02,03,02,10.60
2006,02,02,03,03,7.00
2006,02,02,03,04,8.00
2006,02,02,03,05,7.10
2006,02,02,03,06,13.20
2006,02,02,03,07,8.10
2006,02,02,03,08,9.40
2006,02,02,03,09,12.50
2006,02,02,03,10,9.70
2006,02,02,03,11,10.50
2006,02,02,03,12,9.70
2006,02,02,03,13,14.40
2006,02,02,03,14,12.40
2006,02,02,03,15,9.60
2006,02,02,03,16,9.50
2006,02,02,03,17,12.80
2006,02,02,03,18,10.90
2006,02,02,03,19,11.60
2006,02,02,03,20,14.70
2006,02,02,03,21,13.80
2006,02,02,03,22,10.60
2006,02,02,03,23,9.60
2006,02,02,03,24,9.50
2006,02,02,03,25,5.20
2006,02,02,03,26,5.20
2006,02,02,03,27,6.00
2006,02,02,03,28,4.40
2006,02,02,03,29,7.30
2006,02,02,03,30,7.70
2006,02,02,03,31,5.00
2006,02,02,03,32,4.80
2006,02,02,03,33,5.30
2006,02,02,03,34,3.10
2006,02,02,03,35,12.50
2006,02,02,03,36,14.90
2006,02,02,03,37,7.70
2006,02,02,03,38,12.40
2006,02,02,03,39,12.20
2006,02,02,03,40,8.90
2006,02,02,03,41,9.40
2006,02,02,03,42,4.70
2006,02,02,03,43,6.50
2006,02,02,03,44,1.50
2006,02,02,03,45,0.90
2006,02,02,03,46,2.30
2006,02,02,03,47,2.30
2006,02,02,03,48,6.50
2006,02,02,03,49,7.70
2006,02,02,03,50,11.40
2006,02,02,03,51,7.70
2006,02,02,03,52,9.30
2006,02,02,03,53,10.20
2006,02,02,03,54,9.90
2006,02,02,03,55,7.00
2006,02,02,03,56,4.40
2006,02,02,03,57,5.20
2006,02,02,03,58,3.90
2006,02,02,03,59,4.50
2006,02,02,04,00,5.40
2006,02,02,04,01,6.00
2006,02,02,04,02,7.80
2006,02,02,04,03,7.20
2006,02,02,04,04,6.40
2006,02,02,04,05,4.30
2006,02,02,04,06,6.40
2006,02,02,04,07,4.20
2006,02,02,04,08,3.50
2006,02,02,04,09,1.70
2006,02,02,04,10,4.80
2006,02,02,04,11,4.30
2006,02,02,04,12,5.40
2006,02,02,04,13,4.90
2006,02,02,04,14,9.70
2006,02,02,04,15,10.80
2006,02,02,04,16,8.10
2006,02,02,04,17,8.60
2006,02,02,04,18,8.30
2006,02,02,04,19,9.40
2006,02,02,04,20,11.20
2006,02,02,04,21,10.80
2006,02,02,04,22,11.40
2006,02,02,04,23,20.10
2006,02,02,04,24,19.20
2006,02,02,04,25,20.70
2006,02,02,04,26,19.70
2006,02,02,04,27,12.10
2006,02,02,04,28,15.90
2006,02,02,04,29,15.90
2006,02,02,04,30,11.20
2006,02,02,04,31,11.60
2006,02,02,04,32,13.50
2006,02,02,04,33,17.10
2006,02,02,04,34,18.90
2006,02,02,04,35,9.40
2006,02,02,04,36,18.20
2006,02,02,04,37,13.90
2006,02,02,04,38,13.00
2006,02,02,04,39,15.70
2006,02,02,04,40,21.80
2006,02,02,04,41,18.40
2006,02,02,04,42,16.30
2006,02,02,04,43,15.10
2006,02,02,04,44,13.70
2006,02,02,04,45,11.30
2006,02,02,04,46,11.90
2006,02,02,04,47,11.70
2006,02,02,04,48,11.80
2006,02,02,04,49,6.70
2006,02,02,04,50,9.70
2006,02,02,04,51,14.20
2006,02,02,04,52,10.60
2006,02,02,04,53,10.40
2006,02,02,04,54,8.80
2006,02,02,04,55,7.30
2006,02,02,04,56,8.30
2006,02,02,04,57,9.70
2006,02,02,04,58,7.10
2006,02,02,04,59,7.40
2006,02,02,05,00,10.60
2006,02,02,05,01,10.00
2006,02,02,05,02,22.50
2006,02,02,05,03,11.10
2006,02,02,05,04,18.20
2006,02,02,05,05,13.40
2006,02,02,05,06,5.30
2006,02,02,05,07,6.40
2006,02,02,05,08,16.60
2006,02,02,05,09,9.40
2006,02,02,05,10,11.20
2006,02,02,05,11,7.20
2006,02,02,05,12,13.60
2006,02,02,05,13,10.60
2006,02,02,05,14,10.80
2006,02,02,05,15,13.60
2006,02,02,05,16,9.70
2006,02,02,05,17,11.20
2006,02,02,05,18,14.00
2006,02,02,05,19,13.00
2006,02,02,05,20,15.30
2006,02,02,05,21,10.30
2006,02,02,05,22,12.50
2006,02,02,05,23,12.60
2006,02,02,05,24,12.80
2006,02,02,05,25,11.30
2006,02,02,05,26,13.90
2006,02,02,05,27,13.30
2006,02,02,05,28,11.40
2006,02,02,05,29,12.30
2006,02,02,05,30,8.90
2006,02,02,05,31,10.90
2006,02,02,05,32,10.90
2006,02,02,05,33,8.80
2006,02,02,05,34,6.80
2006,02,02,05,35,9.10
2006,02,02,05,36,10.30
2006,02,02,05,37,9.20
2006,02,02,05,38,7.70
2006,02,02,05,39,8.40
2006,02,02,05,40,7.60
2006,02,02,05,41,11.00
2006,02,02,05,42,8.90
2006,02,02,05,43,11.00
2006,02,02,05,44,9.00
2006,02,02,05,45,13.80
2006,02,02,05,46,8.70
2006,02,02,05,47,11.20
2006,02,02,05,48,8.80
2006,02,02,05,49,8.20
2006,02,02,05,50,7.60
2006,02,02,05,51,6.70
2006,02,02,05,52,4.30
2006,02,02,05,53,6.20
2006,02,02,05,54,5.30
2006,02,02,05,55,3.90
2006,02,02,05,56,5.70
2006,02,02,05,57,6.20
2006,02,02,05,58,6.10
2006,02,02,05,59,5.80
2006,02,02,06,00,5.00
2006,02,02,06,01,6.70
2006,02,02,06,02,5.80
2006,02,02,06,03,4.30
2006,02,02,06,04,6.00
2006,02,02,06,05,9.70
2006,02,02,06,06,4.70
2006,02,02,06,07,3.70
2006,02,02,06,08,4.80
2006,02,02,06,09,5.60
2006,02,02,06,10,3.70
2006,02,02,06,11,4.30
2006,02,02,06,12,5.40
2006,02,02,06,13,5.20
2006,02,02,06,14,10.30
2006,02,02,06,15,9.40
2006,02,02,06,16,11.90
2006,02,02,06,17,7.40
2006,02,02,06,18,4.40
2006,02,02,06,19,6.40
2006,02,02,06,20,5.80
2006,02,02,06,21,4.90
2006,02,02,06,22,6.40
2006,02,02,06,23,8.60
2006,02,02,06,24,6.80
2006,02,02,06,25,6.30
2006,02,02,06,26,4.30
2006,02,02,06,27,4.20
2006,02,02,06,28,3.80
2006,02,02,06,29,5.10
2006,02,02,06,30,4.70
2006,02,02,06,31,4.60
2006,02,02,06,32,3.80
2006,02,02,06,33,7.30
2006,02,02,06,34,6.00
2006,02,02,06,35,4.70
2006,02,02,06,36,5.70
2006,02,02,06,37,6.20
2006,02,02,06,38,5.90
2006,02,02,06,39,4.20
2006,02,02,06,40,4.90
2006,02,02,06,41,8.00
2006,02,02,06,42,5.10
2006,02,02,06,43,5.60
2006,02,02,06,44,4.50
2006,02,02,06,45,4.10
2006,02,02,06,46,5.50
2006,02,02,06,47,5.80
2006,02,02,06,48,4.70
2006,02,02,06,49,7.20
2006,02,02,06,50,5.30
2006,02,02,06,51,5.70
2006,02,02,06,52,5.90
2006,02,02,06,53,4.10
2006,02,02,06,54,3.50
2006,02,02,06,55,5.70
2006,02,02,06,56,4.20
2006,02,02,06,57,4.20
2006,02,02,06,58,4.00
2006,02,02,06,59,3.70
2006,02,02,07,00,3.60
2006,02,02,07,01,3.70
2006,02,02,07,02,2.80
2006,02,02,07,03,2.40
2006,02,02,07,04,0.50
2006,02,02,07,05,0.50
2006,02,02,07,06,2.20
2006,02,02,07,07,3.20
2006,02,02,07,08,5.10
2006,02,02,07,09,5.80
2006,02,02,07,10,1.90
2006,02,02,07,11,1.50
2006,02,02,07,12,4.30
2006,02,02,07,13,5.60
2006,02,02,07,14,3.70
2006,02,02,07,15,1.90
2006,02,02,07,16,1.40
2006,02,02,07,17,1.70
2006,02,02,07,18,2.30
2006,02,02,07,19,2.50
2006,02,02,07,20,2.20
2006,02,02,07,21,2.80
2006,02,02,07,22,1.80
2006,02,02,07,23,2.00
2006,02,02,07,24,1.10
2006,02,02,07,25,0.20
2006,02,02,07,26,0.00
2006,02,02,07,27,0.00
2006,02,02,07,28,0.00
2006,02,02,07,29,0.00
2006,02,02,07,30,0.00
2006,02,02,07,31,0.00
2006,02,02,07,32,0.00
2006,02,02,07,33,0.00
2006,02,02,07,34,0.00
2006,02,02,07,35,0.00
2006,02,02,07,36,0.40
2006,02,02,07,37,1.20
2006,02,02,07,38,1.40
2006,02,02,07,39,1.70
2006,02,02,07,40,1.10
2006,02,02,07,41,1.10
2006,02,02,07,42,0.70
2006,02,02,07,43,1.40
2006,02,02,07,44,0.60
2006,02,02,07,45,0.00
2006,02,02,07,46,0.00
2006,02,02,07,47,0.00
2006,02,02,07,48,0.00
2006,02,02,07,49,0.00
2006,02,02,07,50,0.00
2006,02,02,07,51,0.50
2006,02,02,07,52,1.50
2006,02,02,07,53,0.70
2006,02,02,07,54,2.30
2006,02,02,07,55,2.70
2006,02,02,07,56,2.60
2006,02,02,07,57,1.00
2006,02,02,07,58,0.00
2006,02,02,07,59,0.20
2006,02,02,08,00,2.00
2006,02,02,08,01,2.30
2006,02,02,08,02,2.70
2006,02,02,08,03,3.00
2006,02,02,08,04,3.80
2006,02,02,08,05,3.50
2006,02,02,08,06,3.50
2006,02,02,08,07,3.20
2006,02,02,08,08,2.70
2006,02,02,08,09,1.90
2006,02,02,08,10,1.00
2006,02,02,08,11,0.80
2006,02,02,08,12,1.30
2006,02,02,08,13,2.10
2006,02,02,08,14,2.10
2006,02,02,08,15,2.30
2006,02,02,08,16,3.50
2006,02,02,08,17,3.50
2006,02,02,08,18,3.00
2006,02,02,08,19,4.40
2006,02,02,08,20,4.50
2006,02,02,08,21,4.40
2006,02,02,08,22,4.30
2006,02,02,08,23,5.10
2006,02,02,08,24,4.30
2006,02,02,08,25,8.00
2006,02,02,08,26,9.30
2006,02,02,08,27,10.50
2006,02,02,08,28,6.50
2006,02,02,08,29,5.20
2006,02,02,08,30,4.40
2006,02,02,08,31,5.60
2006,02,02,08,32,1.60
2006,02,02,08,33,7.50
2006,02,02,08,34,5.80
2006,02,02,08,35,10.30
2006,02,02,08,36,10.90
2006,02,02,08,37,8.10
2006,02,02,08,38,6.00
2006,02,02,08,39,5.30
2006,02,02,08,40,4.10
2006,02,02,08,41,5.90
2006,02,02,08,42,4.80
2006,02,02,08,43,3.20
2006,02,02,08,44,3.90
2006,02,02,08,45,2.70
2006,02,02,08,46,3.20
2006,02,02,08,47,7.60
2006,02,02,08,48,6.00
2006,02,02,08,49,7.70
2006,02,02,08,50,4.80
2006,02,02,08,51,1.90
2006,02,02,08,52,3.70
2006,02,02,08,53,2.80
2006,02,02,08,54,5.60
2006,02,02,08,55,5.50
2006,02,02,08,56,5.60
2006,02,02,08,57,3.40
2006,02,02,08,58,3.30
2006,02,02,08,59,4.40
2006,02,02,09,00,2.20
2006,02,02,09,01,1.00
2006,02,02,09,02,2.70
2006,02,02,09,03,1.90
2006,02,02,09,04,4.50
2006,02,02,09,05,4.10
2006,02,02,09,06,3.20
2006,02,02,09,07,2.50
2006,02,02,09,08,2.10
2006,02,02,09,09,4.80
2006,02,02,09,10,5.50
2006,02,02,09,11,6.00
2006,02,02,09,12,4.60
2006,02,02,09,13,5.70
2006,02,02,09,14,3.70
2006,02,02,09,15,2.50
2006,02,02,09,16,3.40
2006,02,02,09,17,4.10
2006,02,02,09,18,2.00
2006,02,02,09,19,3.50
2006,02,02,09,20,2.70
2006,02,02,09,21,3.40
2006,02,02,09,22,3.80
2006,02,02,09,23,3.20
2006,02,02,09,24,2.00
2006,02,02,09,25,3.30
2006,02,02,09,26,5.80
2006,02,02,09,27,6.00
2006,02,02,09,28,5.60
2006,02,02,09,29,4.70
2006,02,02,09,30,3.80
2006,02,02,09,31,3.20
2006,02,02,09,32,2.90
2006,02,02,09,33,2.50
2006,02,02,09,34,2.20
2006,02,02,09,35,1.90
2006,02,02,09,36,2.90
2006,02,02,09,37,3.40
2006,02,02,09,38,4.70
2006,02,02,09,39,5.70
2006,02,02,09,40,4.90
2006,02,02,09,41,5.40
2006,02,02,09,42,3.40
2006,02,02,09,43,3.20
2006,02,02,09,44,4.60
2006,02,02,09,45,6.30
2006,02,02,09,46,5.00
2006,02,02,09,47,7.10
2006,02,02,09,48,5.00
2006,02,02,09,49,5.80
2006,02,02,09,50,4.80
2006,02,02,09,51,5.20
2006,02,02,09,52,5.20
2006,02,02,09,53,5.50
2006,02,02,09,54,2.90
2006,02,02,09,55,4.60
2006,02,02,09,56,4.40
2006,02,02,09,57,4.20
2006,02,02,09,58,3.10
2006,02,02,09,59,3.50
2006,02,02,10,00,4.30
2006,02,02,10,01,4.20
2006,02,02,10,02,4.70
2006,02,02,10,03,4.20
2006,02,02,10,04,5.20
2006,02,02,10,05,8.40
2006,02,02,10,06,7.80
2006,02,02,10,07,5.40
2006,02,02,10,08,4.30
2006,02,02,10,09,3.70
2006,02,02,10,10,5.60
2006,02,02,10,11,3.90
2006,02,02,10,12,3.10
2006,02,02,10,13,6.10
2006,02,02,10,14,7.20
2006,02,02,10,15,6.50
2006,02,02,10,16,7.60
2006,02,02,10,17,5.80
2006,02,02,10,18,5.40
2006,02,02,10,19,7.80
2006,02,02,10,20,3.80
2006,02,02,10,21,6.20
2006,02,02,10,22,6.10
2006,02,02,10,23,6.90
2006,02,02,10,24,4.90
2006,02,02,10,25,4.10
2006,02,02,10,26,2.80
2006,02,02,10,27,4.80
2006,02,02,10,28,3.10
2006,02,02,10,29,3.00
2006,02,02,10,30,3.60
2006,02,02,10,31,3.60
2006,02,02,10,32,7.60
2006,02,02,10,33,4.60
2006,02,02,10,34,2.50
2006,02,02,10,35,3.80
2006,02,02,10,36,6.10
2006,02,02,10,37,5.70
2006,02,02,10,38,5.80
2006,02,02,10,39,7.20
2006,02,02,10,40,5.60
2006,02,02,10,41,5.80
2006,02,02,10,42,5.30
2006,02,02,10,43,7.70
2006,02,02,10,44,5.70
2006,02,02,10,45,8.10
2006,02,02,10,46,8.60
2006,02,02,10,47,7.80
2006,02,02,10,48,5.10
2006,02,02,10,49,4.90
2006,02,02,10,50,4.50
2006,02,02,10,51,4.30
2006,02,02,10,52,4.10
2006,02,02,10,53,1.60
2006,02,02,10,54,10.60
2006,02,02,10,55,13.40
2006,02,02,10,56,7.50
2006,02,02,10,57,6.80
2006,02,02,10,58,7.20
2006,02,02,10,59,4.50
2006,02,02,11,00,11.30
2006,02,02,11,01,6.60
2006,02,02,11,02,9.30
2006,02,02,11,03,11.70
2006,02,02,11,04,7.60
2006,02,02,11,05,4.70
2006,02,02,11,06,2.70
2006,02,02,11,07,6.30
2006,02,02,11,08,4.40
2006,02,02,11,09,4.10
2006,02,02,11,10,2.70
2006,02,02,11,11,2.90
2006,02,02,11,12,3.40
2006,02,02,11,13,3.30
2006,02,02,11,14,4.30
2006,02,02,11,15,4.50
2006,02,02,11,16,7.20
2006,02,02,11,17,8.10
2006,02,02,11,18,8.70
2006,02,02,11,19,13.10
2006,02,02,11,20,10.20
2006,02,02,11,21,9.80
2006,02,02,11,22,10.30
2006,02,02,11,23,10.70
2006,02,02,11,24,7.50
2006,02,02,11,25,6.70
2006,02,02,11,26,5.20
2006,02,02,11,27,3.80
2006,02,02,11,28,8.60
2006,02,02,11,29,15.10
2006,02,02,11,30,12.20
2006,02,02,11,31,9.30
2006,02,02,11,32,10.50
2006,02,02,11,33,8.90
2006,02,02,11,34,13.40
2006,02,02,11,35,12.40
2006,02,02,11,36,7.10
2006,02,02,11,37,6.00
2006,02,02,11,38,6.00
2006,02,02,11,39,7.60
2006,02,02,11,40,9.70
2006,02,02,11,41,8.80
2006,02,02,11,42,8.40
2006,02,02,11,43,11.70
2006,02,02,11,44,14.10
2006,02,02,11,45,8.40
2006,02,02,11,46,7.60
2006,02,02,11,47,11.30
2006,02,02,11,48,8.90
2006,02,02,11,49,11.60
2006,02,02,11,50,12.20
2006,02,02,11,51,14.10
2006,02,02,11,52,9.50
2006,02,02,11,53,14.80
2006,02,02,11,54,11.30
2006,02,02,11,55,9.20
2006,02,02,11,56,10.80
2006,02,02,11,57,9.50
2006,02,02,11,58,13.40
2006,02,02,11,59,9.60
2006,02,02,12,00,10.80
2006,02,02,12,01,8.60
2006,02,02,12,02,10.40
2006,02,02,12,03,12.30
2006,02,02,12,04,11.60
2006,02,02,12,05,9.20
2006,02,02,12,06,15.70
2006,02,02,12,07,14.00
2006,02,02,12,08,11.60
2006,02,02,12,09,11.70
2006,02,02,12,10,19.00
2006,02,02,12,11,14.70
2006,02,02,12,12,16.00
2006,02,02,12,13,12.90
2006,02,02,12,14,9.00
2006,02,02,12,15,7.70
2006,02,02,12,16,11.80
2006,02,02,12,17,14.90
2006,02,02,12,18,12.00
2006,02,02,12,19,12.60
2006,02,02,12,20,13.90
2006,02,02,12,21,8.40
2006,02,02,12,22,9.10
2006,02,02,12,23,7.70
2006,02,02,12,24,3.60
2006,02,02,12,25,8.00
2006,02,02,12,26,8.30
2006,02,02,12,27,9.00
2006,02,02,12,28,7.50
2006,02,02,12,29,6.50
2006,02,02,12,30,8.00
2006,02,02,12,31,10.80
2006,02,02,12,32,5.30
2006,02,02,12,33,5.50
2006,02,02,12,34,7.20
2006,02,02,12,35,7.00
2006,02,02,12,36,9.50
2006,02,02,12,37,8.20
2006,02,02,12,38,5.10
2006,02,02,12,39,8.10
2006,02,02,12,40,7.70
2006,02,02,12,41,7.60
2006,02,02,12,42,8.00
2006,02,02,12,43,8.30
2006,02,02,12,44,8.60
2006,02,02,12,45,11.50
2006,02,02,12,46,5.40
2006,02,02,12,47,4.00
2006,02,02,12,48,3.60
2006,02,02,12,49,7.00
2006,02,02,12,50,6.30
2006,02,02,12,51,7.90
2006,02,02,12,52,5.70
2006,02,02,12,53,7.60
2006,02,02,12,54,12.30
2006,02,02,12,55,10.70
2006,02,02,12,56,9.70
2006,02,02,12,57,6.70
2006,02,02,12,58,10.10
2006,02,02,12,59,5.60
2006,02,02,13,00,6.00
2006,02,02,13,01,8.50
2006,02,02,13,02,12.60
2006,02,02,13,03,7.70
2006,02,02,13,04,8.60
2006,02,02,13,05,8.60
2006,02,02,13,06,4.80
2006,02,02,13,07,5.70
2006,02,02,13,08,4.30
2006,02,02,13,09,6.80
2006,02,02,13,10,7.00
2006,02,02,13,11,5.10
2006,02,02,13,12,5.80
2006,02,02,13,13,2.50
2006,02,02,13,14,4.00
2006,02,02,13,15,4.50
2006,02,02,13,16,4.70
2006,02,02,13,17,6.40
2006,02,02,13,18,6.90
2006,02,02,13,19,7.90
2006,02,02,13,20,7.00
2006,02,02,13,21,6.50
2006,02,02,13,22,7.90
2006,02,02,13,23,6.30
2006,02,02,13,24,7.70
2006,02,02,13,25,7.20
2006,02,02,13,26,7.20
2006,02,02,13,27,11.60
2006,02,02,13,28,8.60
2006,02,02,13,29,9.10
2006,02,02,13,30,8.60
2006,02,02,13,31,10.90
2006,02,02,13,32,7.00
2006,02,02,13,33,9.30
2006,02,02,13,34,7.60
2006,02,02,13,35,7.20
2006,02,02,13,36,7.60
2006,02,02,13,37,5.60
2006,02,02,13,38,3.60
2006,02,02,13,39,2.20
2006,02,02,13,40,7.00
2006,02,02,13,41,8.90
2006,02,02,13,42,10.00
2006,02,02,13,43,7.40
2006,02,02,13,44,7.70
2006,02,02,13,45,6.30
2006,02,02,13,46,6.80
2006,02,02,13,47,7.20
2006,02,02,13,48,9.10
2006,02,02,13,49,6.40
2006,02,02,13,50,6.50
2006,02,02,13,51,6.60
2006,02,02,13,52,6.90
2006,02,02,13,53,8.50
2006,02,02,13,54,7.60
2006,02,02,13,55,5.10
2006,02,02,13,56,6.10
2006,02,02,13,57,6.20
2006,02,02,13,58,3.50
2006,02,02,13,59,6.70
2006,02,02,14,00,9.00
2006,02,02,14,01,6.30
2006,02,02,14,02,5.00
2006,02,02,14,03,6.70
2006,02,02,14,04,6.20
2006,02,02,14,05,5.80
2006,02,02,14,06,9.90
2006,02,02,14,07,6.00
2006,02,02,14,08,5.20
2006,02,02,14,09,6.00
2006,02,02,14,10,10.10
2006,02,02,14,11,9.20
2006,02,02,14,12,9.40
2006,02,02,14,13,5.40
2006,02,02,14,14,4.70
2006,02,02,14,15,6.00
2006,02,02,14,16,6.00
2006,02,02,14,17,3.90
2006,02,02,14,18,2.80
2006,02,02,14,19,2.50
2006,02,02,14,20,4.40
2006,02,02,14,21,3.80
2006,02,02,14,22,3.50
2006,02,02,14,23,6.70
2006,02,02,14,24,6.70
2006,02,02,14,25,4.70
2006,02,02,14,26,3.40
2006,02,02,14,27,3.50
2006,02,02,14,28,7.80
2006,02,02,14,29,5.60
2006,02,02,14,30,3.50
2006,02,02,14,31,3.50
2006,02,02,14,32,3.40
2006,02,02,14,33,5.70
2006,02,02,14,34,9.20
2006,02,02,14,35,5.70
2006,02,02,14,36,5.10
2006,02,02,14,37,3.50
2006,02,02,14,38,3.90
2006,02,02,14,39,1.30
2006,02,02,14,40,3.10
2006,02,02,14,41,6.50
2006,02,02,14,42,4.00
2006,02,02,14,43,1.70
2006,02,02,14,44,2.70
2006,02,02,14,45,8.90
2006,02,02,14,46,4.80
2006,02,02,14,47,6.80
2006,02,02,14,48,6.60
2006,02,02,14,49,4.70
2006,02,02,14,50,3.10
2006,02,02,14,51,4.40
2006,02,02,14,52,5.70
2006,02,02,14,53,5.80
2006,02,02,14,54,3.90
2006,02,02,14,55,5.60
2006,02,02,14,56,7.10
2006,02,02,14,57,6.20
2006,02,02,14,58,3.30
2006,02,02,14,59,4.40
2006,02,02,15,00,6.70
2006,02,02,15,01,5.50
2006,02,02,15,02,5.20
2006,02,02,15,03,8.10
2006,02,02,15,04,4.80
2006,02,02,15,05,6.10
2006,02,02,15,06,5.40
2006,02,02,15,07,3.40
2006,02,02,15,08,3.90
2006,02,02,15,09,2.60
2006,02,02,15,10,6.00
2006,02,02,15,11,5.00
2006,02,02,15,12,4.60
2006,02,02,15,13,3.00
2006,02,02,15,14,3.30
2006,02,02,15,15,5.40
2006,02,02,15,16,6.50
2006,02,02,15,17,4.60
2006,02,02,15,18,4.00
2006,02,02,15,19,3.60
2006,02,02,15,20,4.20
2006,02,02,15,21,4.40
2006,02,02,15,22,2.90
2006,02,02,15,23,1.40
2006,02,02,15,24,2.60
2006,02,02,15,25,1.80
2006,02,02,15,26,3.60
2006,02,02,15,27,5.80
2006,02,02,15,28,5.10
2006,02,02,15,29,3.60
2006,02,02,15,30,1.50
2006,02,02,15,31,4.60
2006,02,02,15,32,5.20
2006,02,02,15,33,5.40
2006,02,02,15,34,5.60
2006,02,02,15,35,4.20
2006,02,02,15,36,4.70
2006,02,02,15,37,5.70
2006,02,02,15,38,4.40
2006,02,02,15,39,2.90
2006,02,02,15,40,1.90
2006,02,02,15,41,4.00
2006,02,02,15,42,2.00
2006,02,02,15,43,1.50
2006,02,02,15,44,2.80
2006,02,02,15,45,5.30
2006,02,02,15,46,2.70
2006,02,02,15,47,3.40
2006,02,02,15,48,4.50
2006,02,02,15,49,2.20
2006,02,02,15,50,6.10
2006,02,02,15,51,4.90
2006,02,02,15,52,4.90
2006,02,02,15,53,1.60
2006,02,02,15,54,5.30
2006,02,02,15,55,5.30
2006,02,02,15,56,4.10
2006,02,02,15,57,2.50
2006,02,02,15,58,2.20
2006,02,02,15,59,3.00
2006,02,02,16,00,2.40
2006,02,02,16,01,1.70
2006,02,02,16,02,4.30
2006,02,02,16,03,8.00
2006,02,02,16,04,5.70
2006,02,02,16,05,6.90
2006,02,02,16,06,5.50
2006,02,02,16,07,6.80
2006,02,02,16,08,4.70
2006,02,02,16,09,4.40
2006,02,02,16,10,4.30
2006,02,02,16,11,2.40
2006,02,02,16,12,2.90
2006,02,02,16,13,6.70
2006,02,02,16,14,3.80
2006,02,02,16,15,2.30
2006,02,02,16,16,3.10
2006,02,02,16,17,3.10
2006,02,02,16,18,2.70
2006,02,02,16,19,3.90
2006,02,02,16,20,2.60
2006,02,02,16,21,0.80
2006,02,02,16,22,3.40
2006,02,02,16,23,1.90
2006,02,02,16,24,2.40
2006,02,02,16,25,5.00
2006,02,02,16,26,3.20
2006,02,02,16,27,5.00
2006,02,02,16,28,1.70
2006,02,02,16,29,3.10
2006,02,02,16,30,1.90
2006,02,02,16,31,0.40
2006,02,02,16,32,2.00
2006,02,02,16,33,1.30
2006,02,02,16,34,1.90
2006,02,02,16,35,4.00
2006,02,02,16,36,2.40
2006,02,02,16,37,1.40
2006,02,02,16,38,2.50
2006,02,02,16,39,3.50
2006,02,02,16,40,2.30
2006,02,02,16,41,2.50
2006,02,02,16,42,2.80
2006,02,02,16,43,4.20
2006,02,02,16,44,3.00
2006,02,02,16,45,5.50
2006,02,02,16,46,4.80
2006,02,02,16,47,3.30
2006,02,02,16,48,6.20
2006,02,02,16,49,6.70
2006,02,02,16,50,3.70
2006,02,02,16,51,3.90
2006,02,02,16,52,5.50
2006,02,02,16,53,3.60
2006,02,02,16,54,2.30
2006,02,02,16,55,2.10
2006,02,02,16,56,2.70
2006,02,02,16,57,1.00
2006,02,02,16,58,1.20
2006,02,02,16,59,4.80
2006,02,02,17,00,4.50
2006,02,02,17,01,4.70
2006,02,02,17,02,2.50
2006,02,02,17,03,3.10
2006,02,02,17,04,3.60
2006,02,02,17,05,3.80
2006,02,02,17,06,1.90
2006,02,02,17,07,1.30
2006,02,02,17,08,1.10
2006,02,02,17,09,2.00
2006,02,02,17,10,3.20
2006,02,02,17,11,0.40
2006,02,02,17,12,1.70
2006,02,02,17,13,0.50
2006,02,02,17,14,0.60
2006,02,02,17,15,4.40
2006,02,02,17,16,3.70
2006,02,02,17,17,1.40
2006,02,02,17,18,3.10
2006,02,02,17,19,4.80
2006,02,02,17,20,3.80
2006,02,02,17,21,2.50
2006,02,02,17,22,5.00
2006,02,02,17,23,4.30
2006,02,02,17,24,2.20
2006,02,02,17,25,2.70
2006,02,02,17,26,6.40
2006,02,02,17,27,4.00
2006,02,02,17,28,3.40
2006,02,02,17,29,4.70
2006,02,02,17,30,2.20
2006,02,02,17,31,3.80
2006,02,02,17,32,3.80
2006,02,02,17,33,1.50
2006,02,02,17,34,2.90
2006,02,02,17,35,2.90
2006,02,02,17,36,2.20
2006,02,02,17,37,2.80
2006,02,02,17,38,3.00
2006,02,02,17,39,1.90
2006,02,02,17,40,5.70
2006,02,02,17,41,2.20
2006,02,02,17,42,6.40
2006,02,02,17,43,6.40
2006,02,02,17,44,5.10
2006,02,02,17,45,4.00
2006,02,02,17,46,3.20
2006,02,02,17,47,0.30
2006,02,02,17,48,1.70
2006,02,02,17,49,2.80
2006,02,02,17,50,1.00
2006,02,02,17,51,2.60
2006,02,02,17,52,3.60
2006,02,02,17,53,2.50
2006,02,02,17,54,1.90
2006,02,02,17,55,1.50
2006,02,02,17,56,4.90
2006,02,02,17,57,3.40
2006,02,02,17,58,4.80
2006,02,02,17,59,4.60
2006,02,02,18,00,2.50